823  
ASUS41 KPHI 291112  
RWRPHI  
 
REGIONAL WEATHER ROUNDUP  
NATIONAL WEATHER SERVICE MOUNT HOLLY NJ  
700 AM EDT MON MAY 29 2017  
 
NOTE: "FAIR" INDICATES FEW OR NO CLOUDS BELOW 12,000 FEET WITH NO  
SIGNIFICANT WEATHER AND/OR S TO VISIBILITY
.  
 
* = STATION DOES NOT REPORT PRECIPITATION (E.G. RAIN, SNOW, ETC.)  
OR FOG.
 
 
NJZ015>026-291200-  
SOUTHERN NEW JERSEY  
 
CITY SKY/WX TMP DP RH WIND PRES REMARKS
 
POMONA CLOUDY 60 32 34 NE12 29.83R  
WILDWOOD* CLOUDY 60 58 92 NE8 29.84R  
MILLVILLE CLOUDY 60 60 100 NE5 29.84R  
WRIGHTSTOWN CLOUDY 57 55 95 E12 29.83R  
MOUNT HOLLY CLOUDY 58 56 93 VRB5 29.86R  
TRENTON CLOUDY 57 55 93 E8 29.86R  
 

 
NJZ001>014-291200-  
NORTHERN NEW JERSEY  
 
CITY SKY/WX TMP DP RH WIND PRES REMARKS
 
SUSSEX CLOUDY 56 54 93 NE3 29.90R  
ANDOVER* N/A 56 52 86 NE3 29.88R  
MORRISTOWN LGT RAIN 55 55 100 NE6 29.89S FOG  
NEWARK LGT RAIN 58 55 90 E9 29.89S  
TETERBORO LGT RAIN 57 54 89 E6 29.89R  
CALDWELL CLOUDY 58 54 86 NE6 29.90R  
SOMERVILLE CLOUDY 57 55 93 VRB6 29.86R  
ALLAIRE* RAIN 56 55 97 E12G21 29.87S FOG  
TOMS RIVER* LGT RAIN 57 56 96 NE9G17 29.86R  
 

 
PAZ043-044-047-054-055-060>062-066>071-291200-  
EASTERN PENNSYLVANIA  
 
CITY SKY/WX TMP DP RH WIND PRES REMARKS
 
PHILADELPHIA CLOUDY 60 57 89 E9 29.86R  
NORTH PHILA CLOUDY 59 56 89 E9 29.87R  
BLUE BELL* CLOUDY 55 55 100 E7 29.87R  
DOYLESTOWN CLOUDY 56 56 100 VRB3 29.85R  
QUAKERTOWN* CLOUDY 55 55 100 E5 29.86S  
PERKASIE* CLOUDY 55 55 100 E7 29.86S FOG  
POTTSTOWN LGT RAIN 56 55 97 CALM 29.88R FOG  
LANCASTER CLOUDY 59 59 100 E7 29.84S  
COATESVILLE CLOUDY 57 57 100 E6 29.87R  
READING LGT RAIN 58 58 100 CALM 29.86R FOG  
ALLENTOWN LGT RAIN 58 53 84 E9 29.85R  
MOUNT POCONO CLOUDY 50 50 100 SE14 29.87R FOG  
HAZLETON CLOUDY 54 52 94 SE6 29.88R FOG  
LEHIGHTON HVY RAIN 55 54 94 CALM 29.88R  
WILKES BARRE CLOUDY 56 53 90 CALM 29.85R  
 

 
DEZALL-MDZ008-012-015-019-020-291200-  
DELAWARE AND EASTERN MARYLAND  
 
CITY SKY/WX TMP DP RH WIND PRES REMARKS
 
WILMINGTON LGT RAIN 60 59 96 NE10 29.85R FOG  
DOVER CLOUDY 61 61 100 NE5 29.83R FOG  
GEORGETOWN CLOUDY 62 60 93 N3 29.83R FOG  
EASTON CLOUDY 63 59 88 NE6 29.86R FOG  
ABERDEEN CLOUDY 60 59 97 E8 29.84R  
PATUXENT CLOUDY 64 64 100 N5 29.83R  
OCEAN CITY CLOUDY 61 60 97 N9 29.83R  
WALLOPS ISLAND CLOUDY 63 63 100 NW7 29.82R  
CAMBRIDGE CLOUDY 63 61 94 VRB5 29.82S  
SALISBURY CLOUDY 62 62 100 N6 29.82S  
 

 
PAZ001-021-NYZ056-072-MDZ011-DCZ001-291200-  
OTHER NEARBY LOCATIONS  
 
CITY SKY/WX TMP DP RH WIND PRES REMARKS
 
HARRISBURG DRIZZLE 60 59 96 SE8 29.83S FOG  
STATE COLLEGE LGT RAIN 59 59 100 CALM 29.80S  
WILLIAMSPORT CLOUDY 59 59 100 E9 29.82R  
BINGHAMTON RAIN 51 51 100 SE14 29.82S FOG  
NEW YORK CITY CLOUDY 56 55 97 VRB6 29.92R  
BALTIMORE CLOUDY 62 62 100 CALM 29.85R  
WASHINGTON DC DRIZZLE 64 64 100 NE6 29.84R FOG  
 

 
 
 
CLICK HERE TO GO TO PREVIOUS BULLETINS.

The Nexlab PA Page
The Nexlab NJ Page
The Nexlab DE Page
The Nexlab MD Page Main Text Page